カタログに戻る

IRIDIUM 170

運用中通信PO
NORAD 43930·PAYLOAD·🇺🇸 United States

打ち上げ Jan 11, 2019 から Vandenberg Space Force Base

Loading…

次のパス (今後24時間)

TLE

最新Source: CelesTrak SupGP

元期: Sep 15, 2026, 01:55 UTC

1 43930C 19002J   26258.08020833  .00003849  00000+0  61125-3 0  2587
2 43930  86.6095 315.9752 0002542  95.8447 231.2839 14.72255257    16

AllMySatでIRIDIUM 170をリアルタイム追跡

Download on the App Store